SCP
0 0 0 0 0 0 0 0 0 0 0 0 -0 -0 0 0 -0 -0 -0 0 -0 -0 -0 0 -0 -0 -0 -0 0 0 0 0 0 0 0 0 0 0 0 0 0 0 0 0
0 0 0 0 0 0 0 0 0 0 0 0 -0 -0 0 0 0 -0 0 0 0 -0 -0 -0 0 0 0 0 0 0 0 0 0 0 0 0 0 0 0 0 0 0 0 0
0 0 0 0 0 0 0 0 0 0 0 0 0 0 -0 0 0 0 0 0 0 -0 -0 -0 0 0 0 0 0 0 0 0 0 0 0 0 0 0 0 0 0 0 0 0
0 0 0 0 0 0 0 0 0 0 0 -0 -0 0 0 -0 0 -0 -0 -0 -0 -0 -0 -0 -0 0 0 -0 -0 -0 -0 -0 0 0 0 0 0 0 0 0 0 0 0 0
0 0 0 0 0 0 0 0 0 0 0 -0 -0 -0 0 -0 0 -0 -0 -0 0 -0 0 -0 -0 -0 0 0 -0 -0 -0 -0 -0 -0 0 0 0 0 0 0 0 0 0 0
0 0 0 0 0 0 0 0 0 0 0 0 -0 -0 0 -0 -0 0 -0 -0 -0 -0 0 -0 -0 -0 -0 0 0 0 0 0 0 0 0 0 0 0 0 0 0 0 0 0
0 0 0 0 0 0 0 0 0 0 0 0 -0 -0 0 -0 -0 -0 0 -0 -0 -0 -0 -0 -0 -0 -0 -0 0 0 0 0 0 0 0 0 0 0 0 0 0 0 0 0
0 0 0 0 0 0 0 0 0 0 0 0 0 0 0 -0 -0 0 0 0 0 0 0 -0 -0 -0 -0 -0 0 0 0 0 0 0 0 0 0 0 0 0 0 0 0 0
0 0 0 0 0 0 0 0 0 0 0 0 0 0 0 0 -0 -0 -0 -0 0 0 0 -0 0 0 -0 -0 -0 0 0 0 0 0 0 0 0 0 0 0 0 0 0 0
0 0 0 0 0 0 0 0 0 0 0 0 0 0 -0 0 0 -0 -0 0 0 0 0 0 0 0 0 0 0 0 0 0 0 0 0 0 0 0 0 0 0 0 0 0
0 0 0 0 0 0 0 0 0 0 0 0 -0 -0 -0 -0 0 0 -0 -0 0 0 0 0 0 0 0 0 0 0 0 0 0 0 0 0 0 0 0 0 0 0 0 0
0 0 0 0 0 0 0 0 0 0 0 -0 -0 -0 -0 -0 0 0 0 -0 -0 0 0 0 0 0 0 0 0 0 0 0 0 0 0 0 0 0 0 0 0 0 0 0
0 0 0 0 0 0 0 0 0 0 0 -0 0 0 -0 -0 -0 0 0 0 0 0 0 0 0 0 0 0 0 0 0 0 0 0 0 0 0 0 0 0 0 0 0 0
0 0 0 0 0 0 0 0 0 0 0 0 0 0 0 -0 -0 0 0 0 0 0 0 0 0 0 0 0 0 0 0 0 0 0 0 0 0 0 0 0 0 0 0 0
0 0 0 0 0 0 0 0 0 0 0 0 0 0 0 0 0 0 0 0 0 0 0 0 0 0 0 0 0 0 0 0 0 0 0 0 0 0 0 0 0 0 0 0
0 0 0 0 0 0 0 0 0 0 0 0 0 0 0 0 0 0 0 0 0 0 0 0 0 0 0 0 0 0 0 0 0 0 0 0 0 0 0 0 0 0 0 0
0 0 0 0 0 0 0 0 0 0 0 0 0 0 0 0 0 0 0 0 0 0 0 0 0 0 0 0 0 0 0 0 0 0 0 0 0 0 0 0 0 0 0 0
0 0 0 0 0 0 0 0 0 0 0 0 0 0 0 0 0 0 0 0 0 0 0 0 0 0 0 0 0 0 0 0 0 0 0 0 0 0 0 0 0 0 0 0
0 0 0 0 0 0 0 0 0 0 0 0 0 0 0 0 0 0 0 0 0 0 0 0 0 0 0 0 0 0 0 0 0 0 0 0 0 0 0 0 0 0 0 0
0 0 0 0 0 0 0 0 0 0 0 0 0 0 0 0 0 0 0 0 0 0 0 0 0 0 0 0 0 0 0 0 0 0 0 0 0 0 0 0 0 0 0 0
0 0 0 0 0 0 0 0 0 0 0 0 0 0 0 0 0 0 0 0 0 0 0 0 0 0 0 0 0 0 0 0 0 0 0 0 0 0 0 0 0 0 0 0
0 0 0 0 0 0 0 0 0 0 0 0 0 0 0 0 0 0 0 0 0 0 0 0 0 0 0 0 0 0 0 0 0 0 0 0 0 0 0 0 0 0 0 0
0 0 0 0 0 0 0 0 0 0 0 0 0 0 0 0 0 0 0 0 0 0 0 0 0 0 0 0 0 0 0 0 0 0 0 0 0 0 0 0 0 0 0 0
0 0 0 0 0 0 0 0 0 0 0 0 0 0 0 0 0 0 0 0 0 0 0 0 0 0 0 0 0 0 0 0 0 0 0 0 0 0 0 0 0 0 0 0
0 0 0 0 0 0 0 0 0 0 0 0 0 0 0 0 0 0 0 0 0 0 0 0 0 0 0 0 0 0 0 0 0 0 0 0 0 0 0 0 0 0 0 0
0 0 0 0 0 0 0 0 0 0 0 0 0 0 0 0 0 0 0 0 0 0 0 0 0 0 0 0 0 0 0 0 0 0 0 0 0 0 0 0 0 0 0 0
0 0 0 0 0 0 0 0 0 0 0 0 0 0 0 0 0 0 0 0 0 0 0 0 0 0 0 0 0 0 0 0 0 0 0 0 0 0 0 0 0 0 0 0
Wind_Speed_500mb
12 18 10 17 21 9 11 16 11 14 28 24 36 30 36 47 57 60 63 68 80 85 86 87 91 87 77 70 61 41 16 22 45 30 26 31 35 40 38 34 47 65 62 59
7 15 19 16 15 11 12 11 18 16 21 31 43 43 37 50 57 61 63 62 71 78 77 75 76 81 75 67 58 47 43 42 39 33 24 17 13 14 22 34 48 47 45 45
5 4 6 10 15 10 9 10 6 8 12 32 33 42 26 43 54 58 61 62 63 69 71 71 69 67 63 59 52 47 41 39 36 32 26 22 13 8 13 25 28 27 26 29
4 4 6 4 8 6 6 6 3 15 19 25 37 45 15 42 48 53 58 59 59 57 55 58 58 60 57 56 53 50 46 41 36 34 31 24 21 16 12 17 20 29 31 35
4 3 2 5 7 2 4 6 6 16 23 30 39 36 2 45 44 45 47 50 51 49 47 50 55 55 53 54 55 55 56 52 44 35 28 24 18 16 15 7 10 19 24 33
6 5 8 3 8 1 11 7 4 17 24 32 36 21 20 50 47 46 44 46 49 45 44 49 54 52 54 54 54 55 51 47 42 37 34 29 26 20 15 11 4 4 9 21
9 7 4 5 3 18 4 3 15 15 21 24 15 17 38 38 42 39 45 48 47 41 41 49 50 50 52 53 58 52 46 43 40 38 36 33 29 21 19 12 6 3 5 8
6 6 8 8 9 7 5 2 7 15 16 22 20 24 29 31 38 42 46 47 46 42 42 44 45 47 49 51 49 45 42 42 41 37 34 31 27 26 24 20 17 12 8 3
11 4 7 9 5 11 5 4 4 15 19 22 16 19 27 28 34 39 41 42 42 40 42 46 47 46 45 44 42 42 40 40 42 40 34 30 26 26 27 28 26 24 18 12
3 4 8 16 17 10 5 4 3 10 17 17 17 22 25 27 31 37 40 39 39 39 40 47 48 44 40 39 38 37 36 36 38 43 42 37 33 31 30 33 35 32 29 27
4 6 7 13 16 14 7 4 4 8 12 19 19 24 26 29 30 34 35 36 35 37 41 44 45 45 44 40 39 37 36 35 36 39 40 41 42 40 37 37 32 29 31 27
6 3 3 5 19 14 8 6 1 5 12 16 17 19 25 24 27 29 34 34 33 33 35 38 39 39 39 41 40 38 36 36 36 36 37 37 36 37 38 36 29 26 25 25
5 9 7 13 14 10 7 4 2 11 15 17 12 17 22 20 22 25 28 32 35 36 33 33 34 35 36 39 38 36 34 33 32 33 35 37 35 35 34 34 32 29 29 25
7 12 10 13 8 10 5 3 5 10 14 15 13 14 16 17 20 23 26 32 32 31 29 28 29 31 33 34 35 33 33 32 33 32 34 34 36 38 37 36 37 39 37 34
10 4 3 9 11 7 3 3 8 11 12 12 11 11 14 16 17 20 24 26 26 25 26 28 28 30 31 31 30 29 28 29 31 31 34 33 34 36 37 37 39 40 39 41
10 8 7 8 5 2 7 9 7 10 10 10 11 12 12 13 13 16 20 25 29 32 31 27 25 27 28 28 27 25 24 24 24 25 24 27 29 32 33 34 37 39 41 42
16 9 9 6 4 6 6 7 9 10 10 9 10 12 11 8 10 14 19 25 29 29 28 26 23 21 23 24 22 21 21 19 19 18 19 23 26 28 30 30 32 34 38 39
7 6 4 4 3 1 4 7 9 10 11 10 11 14 11 8 13 19 24 27 21 16 19 20 21 20 18 20 22 20 19 18 15 16 18 19 22 25 26 26 27 31 31 31
7 6 6 5 3 2 3 6 9 11 10 8 10 13 14 15 19 24 27 26 24 25 27 24 22 20 17 16 18 20 20 19 18 16 15 17 18 19 22 23 24 26 26 24
8 7 7 7 6 6 8 9 10 12 14 12 14 14 14 18 22 24 26 29 31 30 26 23 22 19 16 16 18 18 18 17 16 16 17 17 16 17 19 19 19 19 20 19
8 9 10 12 13 14 15 16 15 14 14 12 11 13 18 22 25 25 24 27 29 26 24 22 20 19 17 15 15 17 17 16 16 17 17 17 17 16 15 15 14 14 14 15
11 12 15 18 20 21 21 22 23 22 18 15 14 14 16 19 22 27 29 31 30 28 26 23 22 20 18 15 13 13 14 15 16 16 17 17 16 16 15 15 13 12 11 11
18 18 20 21 21 20 19 19 17 18 21 22 21 20 21 22 24 25 28 31 31 28 26 25 23 20 18 16 14 13 12 12 12 13 14 14 15 15 14 13 13 11 9 7
20 19 18 16 13 12 11 10 12 12 14 19 20 21 20 20 21 23 24 25 26 27 26 26 23 21 18 17 15 14 13 11 10 10 11 11 11 12 12 11 11 11 9 8
17 18 16 8 6 4 6 7 7 8 9 13 15 17 19 18 19 21 23 24 24 24 24 23 23 20 18 17 16 15 14 13 12 11 10 9 9 9 9 8 8 7 6 6
24 21 15 13 13 11 9 7 5 4 6 10 13 15 18 18 18 19 20 22 24 25 26 25 23 21 18 16 15 14 14 13 13 12 12 11 10 10 9 9 8 6 4 4
21 15 13 13 12 12 11 12 12 9 9 11 14 17 18 19 18 20 19 19 20 22 24 24 24 23 21 18 16 14 12 12 11 11 11 10 10 9 9 8 7 6 5 4
Wind_Direction_500mb
252 255 239 262 265 237 200 242 248 311 312 346 343 334 344 344 346 354 359 1 1 2 6 11 14 21 30 39 51 57 59 53 73 114 156 216 233 232 225 237 236 231 233 236
257 245 225 240 237 206 246 254 267 289 305 5 334 339 338 350 350 351 354 357 354 3 10 14 16 19 19 26 37 44 51 52 59 72 84 93 133 159 209 214 220 223 225 231
236 151 228 256 209 189 231 239 259 288 339 339 337 339 341 359 350 348 349 351 355 358 6 12 17 22 21 24 27 37 42 44 54 59 62 67 91 173 202 201 191 207 214 229
256 247 212 106 110 153 247 246 290 305 327 339 329 327 332 6 350 345 347 348 351 354 359 11 17 21 21 25 30 34 36 38 46 50 53 56 70 91 119 180 191 205 218 212
223 246 99 165 194 266 257 214 355 324 332 335 335 328 25 356 352 348 348 347 347 350 353 9 19 22 22 27 32 34 33 32 34 36 40 49 56 59 64 68 134 184 206 214
180 223 228 150 149 152 170 251 317 338 336 336 344 348 342 346 348 349 350 351 350 352 357 12 18 20 22 25 31 33 31 30 30 31 33 39 45 48 55 68 74 211 211 226
214 234 268 141 76 136 249 33 324 342 339 337 347 339 327 340 347 352 353 357 1 3 3 12 17 21 24 23 29 27 25 28 29 29 32 34 32 40 47 54 80 148 212 239
171 194 243 158 145 203 96 272 299 330 336 341 342 340 343 346 351 356 358 4 8 8 11 14 16 20 24 23 23 24 27 31 31 32 33 35 36 44 52 55 57 61 44 359
206 189 127 166 166 148 154 230 294 327 336 338 350 353 349 346 354 358 2 5 9 8 13 21 21 18 20 19 24 24 29 34 37 38 40 44 47 55 61 63 63 60 54 43
210 130 184 184 165 169 179 210 292 319 321 342 350 349 350 353 352 359 3 4 6 9 15 22 26 25 23 22 28 29 31 36 39 40 45 48 57 60 62 63 62 62 62 59
266 231 170 173 183 181 175 200 263 303 326 334 338 344 350 350 355 358 3 6 8 12 17 20 23 29 34 33 32 35 34 37 39 39 41 44 47 49 51 55 54 55 56 52
230 243 203 136 180 176 175 156 99 305 330 339 335 337 345 347 353 359 3 7 10 14 17 20 21 24 25 29 35 31 33 34 37 39 43 43 47 51 53 54 49 54 64 59
118 131 122 135 151 168 168 166 317 340 343 347 342 326 338 346 352 356 2 9 12 11 10 10 15 18 24 27 29 33 34 34 38 44 47 49 50 53 54 53 54 58 57 58
163 158 136 170 170 170 194 214 313 334 342 343 342 336 343 347 346 354 359 3 4 4 6 10 12 18 21 26 28 31 37 42 42 47 49 50 52 54 57 61 62 60 58 55
139 118 145 151 150 163 187 290 310 329 343 351 354 358 349 348 346 351 353 357 359 359 6 9 12 20 22 22 26 32 38 42 47 47 52 53 53 55 56 59 66 68 70 68
151 137 149 151 156 263 308 319 331 341 351 9 11 12 360 348 343 353 360 358 358 1 2 5 10 16 19 20 20 25 33 38 45 51 54 58 57 56 56 58 62 67 68 67
153 146 160 182 257 297 335 345 354 353 357 11 24 16 7 355 354 3 8 3 358 353 353 355 9 19 20 18 18 22 25 30 39 51 57 55 54 54 55 56 61 65 67 65
186 177 172 189 193 226 349 360 13 18 32 38 21 11 16 29 25 14 5 4 0 358 4 12 15 22 24 26 27 28 28 32 38 46 52 54 54 54 58 61 64 67 69 70
133 124 116 114 108 77 39 33 30 34 33 32 42 50 51 38 19 9 7 5 12 19 21 21 20 18 23 27 26 30 33 39 44 50 51 51 52 57 60 63 66 71 74 74
125 118 105 88 78 67 59 55 55 53 53 69 58 58 41 28 24 17 14 20 23 19 15 13 16 18 25 29 28 32 32 36 43 47 47 48 51 51 52 58 65 72 79 83
131 115 99 89 85 80 71 67 68 68 66 63 50 40 29 15 7 8 15 21 19 18 17 14 14 21 26 25 20 26 33 37 43 49 47 44 40 44 50 55 60 69 78 87
130 119 109 101 96 93 85 79 71 65 60 53 45 33 22 29 28 20 18 20 17 17 18 17 19 21 24 27 35 38 42 45 48 47 45 44 41 43 48 51 55 62 70 80
134 122 111 101 94 89 86 77 69 65 59 53 49 45 40 36 31 28 25 20 15 16 17 18 18 16 18 23 34 39 43 44 43 40 37 35 37 40 43 44 44 49 56 71
129 126 121 108 93 81 82 81 58 55 48 41 41 40 37 35 28 26 22 16 13 15 12 14 16 18 18 23 27 28 31 32 32 31 30 28 29 30 29 31 30 33 44 64
128 136 135 116 127 116 107 96 64 64 49 31 29 21 16 14 15 12 11 11 12 14 15 15 14 13 15 19 20 22 26 26 28 25 24 22 19 20 19 16 17 18 33 55
133 129 116 101 103 113 110 92 79 88 48 41 32 33 27 23 22 17 10 8 8 10 11 14 16 16 17 18 17 17 19 21 19 18 18 14 14 12 10 13 17 16 23 51
143 133 110 97 89 86 77 68 73 89 86 58 45 32 23 19 16 13 11 12 12 11 11 12 14 18 21 19 13 9 6 5 6 8 11 13 12 9 8 7 5 2 5 10
Wind_Speed_850mb
12 18 10 17 21 9 11 16 11 14 28 24 36 30 36 47 57 60 63 68 80 85 86 87 91 87 77 70 61 41 16 22 45 30 26 31 35 40 38 34 47 65 62 59
7 15 19 16 15 11 12 11 18 16 21 31 43 43 37 50 57 61 63 62 71 78 77 75 76 81 75 67 58 47 43 42 39 33 24 17 13 14 22 34 48 47 45 45
5 4 6 10 15 10 9 10 6 8 12 32 33 42 26 43 54 58 61 62 63 69 71 71 69 67 63 59 52 47 41 39 36 32 26 22 13 8 13 25 28 27 26 29
4 4 6 4 8 6 6 6 3 15 19 25 37 45 15 42 48 53 58 59 59 57 55 58 58 60 57 56 53 50 46 41 36 34 31 24 21 16 12 17 20 29 31 35
4 3 2 5 7 2 4 6 6 16 23 30 39 36 2 45 44 45 47 50 51 49 47 50 55 55 53 54 55 55 56 52 44 35 28 24 18 16 15 7 10 19 24 33
6 5 8 3 8 1 11 7 4 17 24 32 36 21 20 50 47 46 44 46 49 45 44 49 54 52 54 54 54 55 51 47 42 37 34 29 26 20 15 11 4 4 9 21
9 7 4 5 3 18 4 3 15 15 21 24 15 17 38 38 42 39 45 48 47 41 41 49 50 50 52 53 58 52 46 43 40 38 36 33 29 21 19 12 6 3 5 8
6 6 8 8 9 7 5 2 7 15 16 22 20 24 29 31 38 42 46 47 46 42 42 44 45 47 49 51 49 45 42 42 41 37 34 31 27 26 24 20 17 12 8 3
11 4 7 9 5 11 5 4 4 15 19 22 16 19 27 28 34 39 41 42 42 40 42 46 47 46 45 44 42 42 40 40 42 40 34 30 26 26 27 28 26 24 18 12
3 4 8 16 17 10 5 4 3 10 17 17 17 22 25 27 31 37 40 39 39 39 40 47 48 44 40 39 38 37 36 36 38 43 42 37 33 31 30 33 35 32 29 27
4 6 7 13 16 14 7 4 4 8 12 19 19 24 26 29 30 34 35 36 35 37 41 44 45 45 44 40 39 37 36 35 36 39 40 41 42 40 37 37 32 29 31 27
6 3 3 5 19 14 8 6 1 5 12 16 17 19 25 24 27 29 34 34 33 33 35 38 39 39 39 41 40 38 36 36 36 36 37 37 36 37 38 36 29 26 25 25
5 9 7 13 14 10 7 4 2 11 15 17 12 17 22 20 22 25 28 32 35 36 33 33 34 35 36 39 38 36 34 33 32 33 35 37 35 35 34 34 32 29 29 25
7 12 10 13 8 10 5 3 5 10 14 15 13 14 16 17 20 23 26 32 32 31 29 28 29 31 33 34 35 33 33 32 33 32 34 34 36 38 37 36 37 39 37 34
10 4 3 9 11 7 3 3 8 11 12 12 11 11 14 16 17 20 24 26 26 25 26 28 28 30 31 31 30 29 28 29 31 31 34 33 34 36 37 37 39 40 39 41
10 8 7 8 5 2 7 9 7 10 10 10 11 12 12 13 13 16 20 25 29 32 31 27 25 27 28 28 27 25 24 24 24 25 24 27 29 32 33 34 37 39 41 42
16 9 9 6 4 6 6 7 9 10 10 9 10 12 11 8 10 14 19 25 29 29 28 26 23 21 23 24 22 21 21 19 19 18 19 23 26 28 30 30 32 34 38 39
7 6 4 4 3 1 4 7 9 10 11 10 11 14 11 8 13 19 24 27 21 16 19 20 21 20 18 20 22 20 19 18 15 16 18 19 22 25 26 26 27 31 31 31
7 6 6 5 3 2 3 6 9 11 10 8 10 13 14 15 19 24 27 26 24 25 27 24 22 20 17 16 18 20 20 19 18 16 15 17 18 19 22 23 24 26 26 24
8 7 7 7 6 6 8 9 10 12 14 12 14 14 14 18 22 24 26 29 31 30 26 23 22 19 16 16 18 18 18 17 16 16 17 17 16 17 19 19 19 19 20 19
8 9 10 12 13 14 15 16 15 14 14 12 11 13 18 22 25 25 24 27 29 26 24 22 20 19 17 15 15 17 17 16 16 17 17 17 17 16 15 15 14 14 14 15
11 12 15 18 20 21 21 22 23 22 18 15 14 14 16 19 22 27 29 31 30 28 26 23 22 20 18 15 13 13 14 15 16 16 17 17 16 16 15 15 13 12 11 11
18 18 20 21 21 20 19 19 17 18 21 22 21 20 21 22 24 25 28 31 31 28 26 25 23 20 18 16 14 13 12 12 12 13 14 14 15 15 14 13 13 11 9 7
20 19 18 16 13 12 11 10 12 12 14 19 20 21 20 20 21 23 24 25 26 27 26 26 23 21 18 17 15 14 13 11 10 10 11 11 11 12 12 11 11 11 9 8
17 18 16 8 6 4 6 7 7 8 9 13 15 17 19 18 19 21 23 24 24 24 24 23 23 20 18 17 16 15 14 13 12 11 10 9 9 9 9 8 8 7 6 6
24 21 15 13 13 11 9 7 5 4 6 10 13 15 18 18 18 19 20 22 24 25 26 25 23 21 18 16 15 14 14 13 13 12 12 11 10 10 9 9 8 6 4 4
21 15 13 13 12 12 11 12 12 9 9 11 14 17 18 19 18 20 19 19 20 22 24 24 24 23 21 18 16 14 12 12 11 11 11 10 10 9 9 8 7 6 5 4
Wind_Direction_850mb
252 255 239 262 265 237 200 242 248 311 312 346 343 334 344 344 346 354 359 1 1 2 6 11 14 21 30 39 51 57 59 53 73 114 156 216 233 232 225 237 236 231 233 236
257 245 225 240 237 206 246 254 267 289 305 5 334 339 338 350 350 351 354 357 354 3 10 14 16 19 19 26 37 44 51 52 59 72 84 93 133 159 209 214 220 223 225 231
236 151 228 256 209 189 231 239 259 288 339 339 337 339 341 359 350 348 349 351 355 358 6 12 17 22 21 24 27 37 42 44 54 59 62 67 91 173 202 201 191 207 214 229
256 247 212 106 110 153 247 246 290 305 327 339 329 327 332 6 350 345 347 348 351 354 359 11 17 21 21 25 30 34 36 38 46 50 53 56 70 91 119 180 191 205 218 212
223 246 99 165 194 266 257 214 355 324 332 335 335 328 25 356 352 348 348 347 347 350 353 9 19 22 22 27 32 34 33 32 34 36 40 49 56 59 64 68 134 184 206 214
180 223 228 150 149 152 170 251 317 338 336 336 344 348 342 346 348 349 350 351 350 352 357 12 18 20 22 25 31 33 31 30 30 31 33 39 45 48 55 68 74 211 211 226
214 234 268 141 76 136 249 33 324 342 339 337 347 339 327 340 347 352 353 357 1 3 3 12 17 21 24 23 29 27 25 28 29 29 32 34 32 40 47 54 80 148 212 239
171 194 243 158 145 203 96 272 299 330 336 341 342 340 343 346 351 356 358 4 8 8 11 14 16 20 24 23 23 24 27 31 31 32 33 35 36 44 52 55 57 61 44 359
206 189 127 166 166 148 154 230 294 327 336 338 350 353 349 346 354 358 2 5 9 8 13 21 21 18 20 19 24 24 29 34 37 38 40 44 47 55 61 63 63 60 54 43
210 130 184 184 165 169 179 210 292 319 321 342 350 349 350 353 352 359 3 4 6 9 15 22 26 25 23 22 28 29 31 36 39 40 45 48 57 60 62 63 62 62 62 59
266 231 170 173 183 181 175 200 263 303 326 334 338 344 350 350 355 358 3 6 8 12 17 20 23 29 34 33 32 35 34 37 39 39 41 44 47 49 51 55 54 55 56 52
230 243 203 136 180 176 175 156 99 305 330 339 335 337 345 347 353 359 3 7 10 14 17 20 21 24 25 29 35 31 33 34 37 39 43 43 47 51 53 54 49 54 64 59
118 131 122 135 151 168 168 166 317 340 343 347 342 326 338 346 352 356 2 9 12 11 10 10 15 18 24 27 29 33 34 34 38 44 47 49 50 53 54 53 54 58 57 58
163 158 136 170 170 170 194 214 313 334 342 343 342 336 343 347 346 354 359 3 4 4 6 10 12 18 21 26 28 31 37 42 42 47 49 50 52 54 57 61 62 60 58 55
139 118 145 151 150 163 187 290 310 329 343 351 354 358 349 348 346 351 353 357 359 359 6 9 12 20 22 22 26 32 38 42 47 47 52 53 53 55 56 59 66 68 70 68
151 137 149 151 156 263 308 319 331 341 351 9 11 12 360 348 343 353 360 358 358 1 2 5 10 16 19 20 20 25 33 38 45 51 54 58 57 56 56 58 62 67 68 67
153 146 160 182 257 297 335 345 354 353 357 11 24 16 7 355 354 3 8 3 358 353 353 355 9 19 20 18 18 22 25 30 39 51 57 55 54 54 55 56 61 65 67 65
186 177 172 189 193 226 349 360 13 18 32 38 21 11 16 29 25 14 5 4 0 358 4 12 15 22 24 26 27 28 28 32 38 46 52 54 54 54 58 61 64 67 69 70
133 124 116 114 108 77 39 33 30 34 33 32 42 50 51 38 19 9 7 5 12 19 21 21 20 18 23 27 26 30 33 39 44 50 51 51 52 57 60 63 66 71 74 74
125 118 105 88 78 67 59 55 55 53 53 69 58 58 41 28 24 17 14 20 23 19 15 13 16 18 25 29 28 32 32 36 43 47 47 48 51 51 52 58 65 72 79 83
131 115 99 89 85 80 71 67 68 68 66 63 50 40 29 15 7 8 15 21 19 18 17 14 14 21 26 25 20 26 33 37 43 49 47 44 40 44 50 55 60 69 78 87
130 119 109 101 96 93 85 79 71 65 60 53 45 33 22 29 28 20 18 20 17 17 18 17 19 21 24 27 35 38 42 45 48 47 45 44 41 43 48 51 55 62 70 80
134 122 111 101 94 89 86 77 69 65 59 53 49 45 40 36 31 28 25 20 15 16 17 18 18 16 18 23 34 39 43 44 43 40 37 35 37 40 43 44 44 49 56 71
129 126 121 108 93 81 82 81 58 55 48 41 41 40 37 35 28 26 22 16 13 15 12 14 16 18 18 23 27 28 31 32 32 31 30 28 29 30 29 31 30 33 44 64
128 136 135 116 127 116 107 96 64 64 49 31 29 21 16 14 15 12 11 11 12 14 15 15 14 13 15 19 20 22 26 26 28 25 24 22 19 20 19 16 17 18 33 55
133 129 116 101 103 113 110 92 79 88 48 41 32 33 27 23 22 17 10 8 8 10 11 14 16 16 17 18 17 17 19 21 19 18 18 14 14 12 10 13 17 16 23 51
143 133 110 97 89 86 77 68 73 89 86 58 45 32 23 19 16 13 11 12 12 11 11 12 14 18 21 19 13 9 6 5 6 8 11 13 12 9 8 7 5 2 5 10